Change the Weather History Date:

Friday, March 28, 2014

  Actual Average (KRDU) Record (KRDU)
Temperature  
Mean Temperature 58 °F 55 °F  
Max Temperature 73 °F 67 °F 91 °F (1907)
Min Temperature 42 °F 43 °F 20 °F (1969)
Degree Days  
Heating Degree Days 8 10  
Month to date heating degree days 395  
Since 1 July heating degree days 2967  
Cooling Degree Days 0 0  
Month to date cooling degree days 0  
Year to date cooling degree days 1  
Growing Degree Days 8 (Base 50)    
Moisture  
Dew Point 50 °F    
Average Humidity 74    
Maximum Humidity 94    
Minimum Humidity 47    
Precipitation  
Precipitation 0.10 in 0.14 in 1.57 in (1984)
Month to date precipitation 3.73  
Year to date precipitation 10.46  
Snow  
Snow 0.00 in 0.00 in 0.80 in (1947)
Month to date snowfall 0.5  
Since 1 July snowfall 6.0  
Snow Depth -    
Sea Level Pressure  
Sea Level Pressure 30.20 in    
Wind  
Wind Speed 5 mph (South)    
Max Wind Speed 14 mph    
Max Gust Speed 24 mph    
Visibility 8 miles    
Events Rain    
T = Trace of Precipitation, MM = Missing Value Source: NWS Daily Summary

Daily Weather History Graph

Daily Weather History Graph

Search for Another Location

Airport or City:

Trip Planner

Search our weather history database for the weather conditions in past years. The results will help you decide how hot, cold, wet, or windy it might be!

Date:

Astronomy

Mar. 28, 2014 Rise Set
Actual Time 7:05 AM EDT 7:31 PM EDT
Civil Twilight 6:39 AM EDT 7:57 PM EDT
Nautical Twilight 6:09 AM EDT 8:27 PM EDT
Astronomical Twilight 5:38 AM EDT 8:58 PM EDT
Moon 5:30 AM EDT (3/28) 5:29 PM EDT (3/28)
Length of Visible Light 13h 17m
Length of Day
12h 26m
Waning Crescent, 6% of the Moon is Illuminated
Mar 28
Waning Crescent
Mar 30
New
Apr 7
First Quarter
Apr 15
Full
Apr 22
Last Quarter

Hourly Weather History & Observations

Time (EDT) Temp. Windchill Dew Point Humidity Pressure Visibility Wind Dir Wind Speed Gust Speed Precip Events Conditions
12:15 AM 48.2 °F - 33.8 °F 58% 30.30 in 10.0 mi SSE 8.1 mph - N/A   Clear
12:35 AM 48.2 °F - 35.6 °F 62% 30.29 in 10.0 mi South 8.1 mph - N/A   Clear
12:55 AM 48.2 °F - 35.6 °F 62% 30.29 in 10.0 mi South 5.8 mph - N/A   Clear
1:15 AM 46.4 °F 43.5 °F 35.6 °F 66% 30.29 in 10.0 mi South 5.8 mph - N/A   Clear
1:35 AM 44.6 °F 43.1 °F 35.6 °F 71% 30.28 in 10.0 mi South 3.5 mph - N/A   Clear
1:55 AM 44.6 °F 43.1 °F 35.6 °F 71% 30.28 in 10.0 mi South 3.5 mph - N/A   Clear
2:15 AM 44.6 °F - 35.6 °F 71% 30.28 in 10.0 mi Calm Calm - N/A   Clear
2:35 AM 44.6 °F 43.1 °F 35.6 °F 71% 30.27 in 10.0 mi South 3.5 mph - N/A   Clear
2:55 AM 44.6 °F - 35.6 °F 71% 30.26 in 10.0 mi Calm Calm - N/A   Clear
3:15 AM 44.6 °F 43.1 °F 35.6 °F 71% 30.25 in 10.0 mi South 3.5 mph - N/A   Clear
3:35 AM 44.6 °F 42.2 °F 37.4 °F 76% 30.25 in 10.0 mi South 4.6 mph - N/A   Clear
3:55 AM 44.6 °F 42.2 °F 37.4 °F 76% 30.25 in 10.0 mi SSE 4.6 mph - N/A   Clear
4:15 AM 44.6 °F 43.1 °F 37.4 °F 76% 30.24 in 10.0 mi SSE 3.5 mph - N/A   Clear
4:35 AM 42.8 °F - 37.4 °F 81% 30.23 in 10.0 mi Calm Calm - N/A   Clear
4:55 AM 44.6 °F 43.1 °F 37.4 °F 76% 30.23 in 10.0 mi SSE 3.5 mph - N/A   Clear
5:15 AM 44.6 °F 42.2 °F 41.0 °F 87% 30.23 in 10.0 mi South 4.6 mph - N/A   Clear
5:35 AM 46.4 °F 44.3 °F 41.0 °F 81% 30.22 in 10.0 mi SSE 4.6 mph - N/A   Clear
5:55 AM 44.6 °F 42.2 °F 41.0 °F 87% 30.22 in 10.0 mi SSE 4.6 mph - N/A   Clear
6:15 AM 46.4 °F 43.5 °F 42.8 °F 87% 30.21 in 10.0 mi South 5.8 mph - N/A   Clear
6:35 AM 48.2 °F - 42.8 °F 82% 30.21 in 10.0 mi South 5.8 mph - N/A   Clear
6:55 AM 50.0 °F - 42.8 °F 76% 30.20 in 10.0 mi South 3.5 mph - N/A   Clear
7:15 AM 50.0 °F - 44.6 °F 82% 30.21 in 10.0 mi South 3.5 mph - N/A   Clear
7:35 AM 50.0 °F - 42.8 °F 76% 30.22 in 10.0 mi Calm Calm - N/A   Clear
8:15 AM 51.8 °F - 46.4 °F 82% 30.23 in 10.0 mi South 4.6 mph - N/A   Scattered Clouds
8:35 AM 53.6 °F - 46.4 °F 77% 30.23 in 10.0 mi South 4.6 mph - N/A   Clear
8:55 AM 55.4 °F - 46.4 °F 72% 30.23 in 10.0 mi South 6.9 mph - N/A   Scattered Clouds
9:15 AM 59.0 °F - 46.4 °F 63% 30.23 in 10.0 mi SSW 8.1 mph - N/A   Scattered Clouds
9:35 AM 60.8 °F - 46.4 °F 59% 30.23 in 10.0 mi SSW 6.9 mph - N/A   Scattered Clouds
9:55 AM 62.6 °F - 48.2 °F 59% 30.23 in 10.0 mi South 11.5 mph 16.1 mph N/A   Clear
10:15 AM 62.6 °F - 48.2 °F 59% 30.23 in 10.0 mi South 11.5 mph 16.1 mph N/A   Clear
10:35 AM 62.6 °F - 48.2 °F 59% 30.23 in 10.0 mi South 10.4 mph 16.1 mph N/A   Scattered Clouds
10:55 AM 66.2 °F - 50.0 °F 56% 30.22 in 10.0 mi South 11.5 mph 19.6 mph N/A   Scattered Clouds
11:15 AM 68.0 °F - 50.0 °F 52% 30.21 in 10.0 mi South 13.8 mph 24.2 mph N/A   Scattered Clouds
11:35 AM 68.0 °F - 51.8 °F 56% 30.20 in 10.0 mi SSW 8.1 mph 19.6 mph N/A   Scattered Clouds
11:55 AM 69.8 °F - 51.8 °F 53% 30.19 in 10.0 mi SSW 6.9 mph 17.3 mph N/A   Mostly Cloudy
12:15 PM 71.6 °F - 51.8 °F 50% 30.19 in 10.0 mi SW 6.9 mph 20.7 mph N/A   Overcast
12:35 PM 71.6 °F - 51.8 °F 50% 30.19 in 10.0 mi SSW 10.4 mph 18.4 mph N/A   Overcast
12:55 PM 71.6 °F - 51.8 °F 50% 30.19 in 10.0 mi SSW 6.9 mph 16.1 mph N/A   Overcast
1:15 PM 71.6 °F - 51.8 °F 50% 30.18 in 10.0 mi SW 8.1 mph 16.1 mph N/A   Overcast
1:35 PM 71.6 °F - 51.8 °F 50% 30.17 in 10.0 mi SSW 4.6 mph - N/A   Overcast
1:55 PM 71.6 °F - 51.8 °F 50% 30.17 in 10.0 mi SSW 5.8 mph - N/A   Overcast
2:15 PM 71.6 °F - 51.8 °F 50% 30.16 in 10.0 mi SSW 8.1 mph - N/A   Overcast
2:35 PM 73.4 °F - 51.8 °F 47% 30.15 in 10.0 mi South 5.8 mph - N/A   Overcast
2:55 PM 71.6 °F - 51.8 °F 50% 30.14 in 10.0 mi South 6.9 mph - N/A   Overcast
3:15 PM 71.6 °F - 53.6 °F 53% 30.13 in 10.0 mi South 4.6 mph - N/A   Overcast
3:35 PM 69.8 °F - 53.6 °F 56% 30.14 in 7.0 mi SSW 11.5 mph 19.6 mph N/A   Overcast
3:55 PM 68.0 °F - 57.2 °F 68% 30.15 in 4.0 mi SW 5.8 mph - N/A Rain Rain
4:15 PM 64.4 °F - 60.8 °F 88% 30.15 in 2.5 mi Calm Calm - 0.01 in   Light Drizzle
4:35 PM 64.4 °F - 60.8 °F 88% 30.14 in 3.0 mi South 6.9 mph - 0.01 in Rain Rain
4:55 PM 64.4 °F - 60.8 °F 88% 30.14 in 5.0 mi South 5.8 mph - 0.01 in   Light Drizzle
5:15 PM 64.4 °F - 60.8 °F 88% 30.14 in 10.0 mi SSE 5.8 mph - N/A   Overcast
5:35 PM 64.4 °F - 60.8 °F 88% 30.14 in 10.0 mi South 4.6 mph - N/A   Mostly Cloudy
5:55 PM 64.4 °F - 60.8 °F 88% 30.13 in 10.0 mi South 5.8 mph - N/A   Overcast
6:15 PM 64.4 °F - 60.8 °F 88% 30.14 in 10.0 mi South 5.8 mph - N/A   Overcast
6:35 PM 64.4 °F - 60.8 °F 88% 30.14 in 10.0 mi South 5.8 mph - N/A   Overcast
6:55 PM 64.4 °F - 60.8 °F 88% 30.15 in 10.0 mi Calm Calm - N/A   Overcast
7:15 PM 64.4 °F - 60.8 °F 88% 30.16 in 7.0 mi Calm Calm - N/A   Light Drizzle
7:35 PM 64.4 °F - 60.8 °F 88% 30.16 in 7.0 mi Calm Calm - N/A Rain Rain
7:55 PM 64.4 °F - 60.8 °F 88% 30.16 in 4.0 mi Calm Calm - 0.02 in Rain Rain
8:15 PM 62.6 °F - 60.8 °F 94% 30.15 in 5.0 mi Calm Calm - 0.01 in Rain Light Rain
8:35 PM 62.6 °F - 60.8 °F 94% 30.15 in 5.0 mi Calm Calm - 0.01 in   Light Drizzle
8:55 PM 62.6 °F - 59.0 °F 88% 30.15 in 1.2 mi Calm Calm - 0.01 in   Overcast
9:15 PM 62.6 °F - 59.0 °F 88% 30.15 in 4.0 mi Calm Calm - N/A Rain Light Rain
9:35 PM 62.6 °F - 60.8 °F 94% 30.15 in 4.0 mi Calm Calm - N/A   Drizzle
9:55 PM 62.6 °F - 59.0 °F 88% 30.16 in 1.8 mi Calm Calm - 0.01 in Rain Rain
10:15 PM 62.6 °F - 59.0 °F 88% 30.16 in 1.0 mi Calm Calm - N/A   Drizzle
10:35 PM 62.6 °F - 60.8 °F 94% 30.16 in 2.0 mi Calm Calm - 0.01 in Rain Light Rain
10:55 PM 62.6 °F - 60.8 °F 94% 30.15 in 1.2 mi Calm Calm - 0.02 in Rain Light Rain
11:15 PM 62.6 °F - 59.0 °F 88% 30.15 in 1.5 mi Calm Calm - 0.01 in Rain Light Rain
11:35 PM 62.6 °F - 59.0 °F 88% 30.15 in 1.2 mi Calm Calm - 0.01 in Rain Rain
11:55 PM 62.6 °F - 60.8 °F 94% 30.14 in 1.0 mi Calm Calm - 0.03 in Rain Light Rain